CAPE
0 0 0 0 0 0 0 0 0 0 0 0 0 0 0 0 3 2 12 1 8 0 9 7 3 29 27 0 0 0 0 0 0 0 0 0 0 1 2 2 1 2 5 5 10 3 7 3 2
0 0 0 0 0 0 0 0 0 0 0 0 0 0 0 0 0 11 3 7 11 0 8 1 14 24 1 0 0 0 0 0 0 0 0 0 0 0 0 1 2 4 5 9 7 4 10 6 8
0 0 0 0 0 0 0 0 0 0 0 0 0 0 0 2 4 8 10 5 9 7 19 13 25 6 0 0 0 0 0 0 0 0 0 0 0 0 1 1 4 4 7 2 7 6 9 2 6
0 0 0 0 0 0 0 0 0 0 0 0 0 0 0 3 9 7 3 9 18 30 24 21 11 1 0 0 0 0 0 0 0 0 0 0 0 0 0 1 4 5 5 5 3 11 2 5 3
0 0 0 0 0 0 0 0 0 0 0 0 0 0 0 6 8 9 8 13 19 14 10 6 1 0 0 0 0 0 0 0 0 0 0 0 0 0 0 0 5 6 3 3 1 1 1 1 6
0 0 0 0 0 0 0 0 0 0 0 0 0 0 4 16 76 15 28 28 13 1 0 0 0 0 0 0 0 0 0 0 0 0 0 0 0 0 0 0 2 4 4 3 4 6 2 0 0
2 0 1 0 0 0 0 0 0 0 0 0 0 0 4 17 69 46 30 3 0 0 0 0 0 0 0 0 0 0 0 0 0 0 0 0 0 0 0 0 0 0 0 0 0 0 0 0 0
0 0 0 0 0 0 0 0 0 0 0 0 0 0 2 23 39 3 1 0 0 0 0 0 0 0 0 0 0 0 0 0 0 0 0 0 0 0 0 0 0 0 0 0 0 0 0 0 0
0 0 0 0 0 0 0 0 0 0 0 0 0 0 0 21 14 12 1 1 0 0 0 0 0 0 0 0 0 0 0 0 0 0 0 0 0 0 0 0 0 0 0 0 0 0 0 0 0
0 0 0 0 0 0 0 0 0 0 0 0 0 0 0 4 19 23 12 16 9 1 0 0 0 0 0 0 0 0 0 0 0 0 0 0 0 0 0 0 0 0 0 0 0 0 0 0 0
0 0 0 0 0 0 0 0 0 0 0 0 0 0 0 0 0 0 0 0 15 2 0 0 0 0 0 0 0 0 0 0 0 0 0 0 0 0 0 0 0 0 1 0 0 0 0 0 0
0 0 0 0 0 0 0 0 0 0 0 0 0 0 0 0 0 0 0 0 0 2 0 0 0 0 0 0 0 0 0 0 0 0 0 0 0 0 0 0 0 0 1 0 0 0 0 0 0
0 0 0 0 0 0 0 0 0 0 0 0 0 0 0 0 0 0 0 0 0 0 0 0 0 0 0 0 0 0 0 0 0 0 0 0 0 0 0 0 0 0 2 1 0 0 0 0 0
0 0 0 0 0 0 0 0 0 0 0 0 0 0 0 0 0 0 0 0 0 0 0 0 0 0 0 0 0 0 0 0 0 0 0 0 0 2 3 2 2 2 0 1 0 0 0 0 0
0 0 0 0 0 0 0 0 0 0 0 0 0 0 0 0 0 0 0 0 0 0 0 0 0 0 0 0 0 0 0 0 1 0 1 1 1 3 3 1 0 2 1 1 1 0 0 0 0
0 0 0 0 0 0 0 0 0 0 0 0 0 0 0 0 0 0 0 0 0 0 0 0 0 0 0 0 0 0 0 0 0 1 1 3 5 3 2 2 2 4 2 4 1 0 0 0 0
0 0 0 0 0 0 0 0 0 0 0 0 0 0 0 0 0 0 0 0 0 0 0 0 0 0 0 0 0 0 0 0 2 3 3 2 2 6 7 8 9 12 6 7 4 4 0 0 0
0 0 0 0 0 0 0 0 0 0 0 0 0 0 0 0 0 0 0 0 0 0 0 0 0 0 0 0 0 0 0 0 0 0 0 0 0 0 2 2 3 5 1 0 0 0 0 0 0
0 0 0 0 0 0 0 0 0 0 0 0 0 0 0 0 0 0 0 0 0 0 0 0 0 0 0 0 0 0 0 0 0 0 0 0 0 0 0 0 0 0 0 1 0 0 1 0 0
0 1 0 0 0 0 0 0 0 0 0 0 0 0 0 0 0 0 0 0 0 0 0 0 0 0 0 0 0 0 1 0 0 0 0 0 0 0 0 0 0 0 0 0 0 0 0 0 0
0 0 0 0 0 0 0 0 0 0 0 0 0 0 0 0 0 0 0 0 0 0 0 0 0 0 0 0 0 0 1 1 0 0 0 0 0 0 0 0 0 0 0 0 0 0 0 0 0
0 0 0 0 0 0 0 0 0 0 0 0 0 0 0 0 0 0 0 0 0 0 0 0 0 0 0 0 2 2 1 0 0 0 0 0 0 0 0 0 0 0 0 0 0 0 0 0 0
0 0 0 0 0 4 0 1 0 0 0 0 0 0 0 0 0 0 0 0 0 0 0 0 0 0 0 0 0 0 0 0 0 0 0 0 0 0 0 0 0 0 0 0 0 0 0 0 0
0 0 0 0 0 0 0 0 0 0 0 0 0 0 0 0 0 0 0 0 0 0 0 0 0 0 0 0 0 0 0 0 0 0 0 0 0 0 0 0 0 0 0 0 0 0 0 0 0
0 0 0 0 0 0 0 0 0 0 0 0 0 0 0 0 0 0 0 0 0 0 0 0 0 0 0 0 0 0 0 0 0 0 0 0 0 0 0 0 0 0 0 0 0 0 0 0 0
0 0 0 0 0 0 0 0 0 0 0 0 0 0 0 0 0 0 0 0 0 0 0 0 0 0 0 0 0 0 0 0 0 0 0 0 0 0 0 0 0 0 0 0 0 0 0 0 0
0 0 0 0 0 0 0 0 0 0 0 0 0 0 0 0 0 0 0 0 0 0 0 0 0 0 0 0 0 0 0 0 0 0 0 0 0 0 0 0 0 0 0 0 0 0 0 0 0
0 0 0 0 0 0 0 0 0 0 0 0 0 0 0 0 0 0 0 0 0 0 0 0 0 0 0 0 0 0 0 0 0 0 0 0 0 0 0 0 0 0 0 0 0 0 0 0 0
0 0 0 0 0 0 0 0 0 0 0 0 0 0 0 0 0 0 0 0 0 0 0 0 0 0 0 0 0 0 0 0 0 0 0 0 0 0 0 0 0 0 0 0 0 0 0 0 0
0 0 0 0 0 0 0 0 0 0 0 0 0 0 0 0 0 0 0 0 0 0 0 0 0 0 0 0 0 0 0 0 0 0 0 0 0 0 0 0 0 0 0 0 0 0 0 0 0
CIN
-0 -0 -0 -0 -0 -0 -0 -0 -0 -0 -0 -0 -0 -0 -0 -0 -17 -39 -10 -2 -5 -0 -3 -6 -2 -1 -1 -0 -0 -0 -0 -0 -0 -0 -0 -0 -0 -0 -0 -0 -0 -0 -0 -1 -0 -2 -0 -0 -0
-0 -0 -0 -0 -0 -0 -0 -0 -0 -0 -0 -0 -0 -0 -0 -0 -0 -28 -2 -0 -3 -2 -1 -5 -3 -2 -3 -0 -0 -0 -0 -0 -0 -0 -0 -0 -0 -0 -0 -0 -0 -0 -0 -0 -1 -1 -0 -0 -0
-0 -0 -0 -0 -0 -0 -0 -0 -0 -0 -0 -0 -0 -0 -0 -1 -3 -5 -3 -2 -2 -4 -16 -18 -2 -10 -0 -0 -0 -0 -0 -0 -0 -0 -0 -0 -0 -0 -0 -0 -0 -0 -1 -0 -0 -0 -0 -0 -0
-0 -0 -0 -0 -0 -0 -0 -0 -0 -0 -0 -0 -0 -0 -0 -8 -5 -2 -7 -13 -25 -26 -31 -16 -17 -31 -0 -0 -0 -0 -0 -0 -0 -0 -0 -0 -0 -0 -0 -0 -0 -0 -0 -0 -0 -0 -3 -2 -0
-0 -0 -0 -0 -0 -0 -0 -0 -0 -0 -0 -0 -0 -0 -0 -2 -6 -4 -9 -18 -33 -34 -35 -42 -29 -0 -0 -0 -0 -0 -0 -0 -0 -0 -0 -0 -0 -0 -0 -0 -0 -0 -0 -3 -1 -0 -1 -0 -0
-0 -0 -0 -0 -0 -0 -0 -0 -0 -0 -0 -0 -0 -0 -0 -7 -6 -8 -3 -11 -31 -46 -0 -0 -0 -0 -0 -0 -0 -0 -0 -0 -0 -0 -0 -0 -0 -0 -0 -0 -0 -0 -0 -0 -0 -0 -0 -0 -0
-4 -0 -3 -0 -0 -0 -0 -0 -0 -0 -0 -0 -0 -0 -0 -7 -12 -5 -7 -28 -0 -0 -0 -0 -0 -0 -0 -0 -0 -0 -0 -0 -0 -0 -0 -0 -0 -0 -0 -0 -0 -0 -0 -0 -0 -0 -0 -0 -0
-0 -0 -0 -0 -0 -0 -0 -0 -0 -0 -0 -0 -0 -0 -0 -3 -1 -18 -25 -0 -0 -0 -0 -0 -0 -0 -0 -0 -0 -0 -0 -0 -0 -0 -0 -0 -0 -0 -0 -0 -0 -0 -0 -0 -0 -0 -0 -0 -0
-0 -0 -0 -0 -0 -0 -0 -0 -0 -0 -0 -0 -0 -0 -0 -14 -4 -11 -12 -9 -14 -0 -0 -0 -0 -0 -0 -0 -0 -0 -0 -0 -0 -0 -0 -0 -0 -0 -0 -0 -0 -0 -0 -0 -1 -0 -0 -0 -0
-0 -0 -1 -0 -0 -0 -0 -0 -0 -0 -0 -0 -0 -0 -0 -5 -12 -16 -8 -7 -14 -22 -0 -0 -0 -0 -0 -0 -0 -0 -0 -0 -0 -0 -0 -0 -0 -0 -0 -0 -0 -1 -2 -0 -0 -0 -0 -0 -0
-0 -0 -0 -0 -0 -0 -0 -0 -0 -0 -0 -0 -0 -0 -0 -0 -0 -0 -0 -3 -1 -21 -0 -0 -0 -0 -0 -0 -0 -0 -0 -0 -0 -0 -0 -0 -0 -0 -0 -0 -0 -2 -2 -0 -0 -0 -0 -0 -0
-0 -0 -0 -0 -0 -0 -0 -0 -0 -0 -0 -0 -0 -0 -0 -0 -0 -0 -0 -0 -0 -23 -22 -0 -0 -0 -0 -0 -0 -0 -0 -0 -0 -0 -0 -0 -0 -0 -0 -0 -0 -2 -3 -1 -0 -0 -0 -0 -0
-0 -0 -0 -0 -0 -0 -0 -0 -0 -0 -0 -0 -0 -0 -0 -0 -0 -0 -0 -0 -0 -0 -0 -0 -0 -0 -0 -0 -0 -0 -0 -0 -0 -0 -0 -0 -0 -0 -0 -0 -0 -0 -3 -2 -0 -0 -0 -0 -0
-0 -0 -0 -0 -0 -0 -0 -0 -0 -0 -0 -0 -0 -0 -0 -0 -0 -0 -0 -0 -0 -0 -0 -0 -0 -0 -0 -0 -0 -0 -0 -0 -0 -0 -0 -1 -1 -1 -3 -1 -2 -1 -1 -1 -2 -0 -0 -0 -4
-0 -0 -0 -0 -0 -0 -0 -0 -0 -0 -0 -0 -0 -0 -0 -0 -0 -0 -0 -0 -0 -0 -0 -0 -0 -0 -0 -0 -0 -0 -0 -0 -2 -1 -4 -1 -1 -4 -4 -2 -5 -5 -1 -1 -3 -0 -0 -0 -0
-0 -0 -0 -0 -0 -0 -0 -0 -0 -0 -0 -0 -0 -0 -0 -0 -0 -0 -0 -0 -0 -0 -0 -0 -0 -0 -0 -0 -0 -0 -0 -0 -0 -8 -2 -4 -6 -6 -7 -6 -9 -8 -4 -3 -1 -0 -0 -0 -0
-0 -0 -0 -0 -0 -0 -0 -0 -0 -0 -0 -0 -0 -0 -0 -0 -0 -0 -0 -0 -0 -0 -0 -0 -0 -0 -0 -0 -0 -0 -0 -0 -2 -4 -18 -22 -24 -13 -12 -14 -15 -15 -8 -12 -13 -6 -0 -0 -0
-0 -0 -0 -0 -0 -0 -0 -0 -0 -0 -0 -0 -0 -0 -0 -0 -0 -0 -0 -0 -0 -0 -0 -0 -0 -0 -0 -0 -0 -2 -0 -8 -3 -0 -0 -0 -0 -7 -31 -36 -38 -24 -7 -0 -0 -1 -0 -0 -0
-0 -0 -0 -0 -0 -0 -0 -0 -0 -0 -0 -0 -0 -0 -0 -0 -0 -0 -0 -0 -0 -0 -0 -0 -0 -0 -0 -1 -0 -0 -0 -0 -0 -0 -0 -0 -0 -0 -0 -0 -0 -0 -0 -0 -0 -0 -0 -0 -0
-0 -0 -0 -0 -0 -0 -0 -0 -0 -0 -0 -0 -0 -0 -0 -0 -0 -0 -0 -0 -0 -0 -0 -0 -0 -0 -0 -0 -0 -0 -6 -8 -0 -0 -0 -0 -0 -0 -0 -0 -0 -0 -0 -0 -0 -0 -0 -0 -0
-0 -0 -0 -2 -0 -0 -0 -0 -0 -0 -0 -0 -0 -0 -0 -0 -0 -0 -0 -0 -0 -0 -0 -0 -0 -0 -0 -1 -0 -6 -6 -8 -0 -0 -0 -0 -0 -0 -0 -0 -0 -0 -0 -0 -0 -0 -0 -0 -0
-0 -0 -0 -0 -1 -0 -0 -0 -0 -0 -0 -0 -0 -0 -0 -0 -0 -0 -0 -0 -0 -0 -0 -0 -0 -0 -0 -0 -2 -4 -4 -0 -0 -0 -0 -0 -0 -0 -0 -0 -0 -0 -0 -0 -0 -0 -0 -0 -0
-0 -0 -0 -0 -0 -2 -3 -0 -0 -0 -0 -0 -0 -0 -0 -0 -0 -0 -0 -0 -0 -0 -0 -0 -0 -0 -0 -0 -0 -0 -0 -0 -0 -0 -0 -0 -0 -0 -0 -0 -0 -0 -0 -0 -0 -0 -0 -0 -0
-0 -0 -0 -0 -0 -0 -0 -0 -0 -0 -0 -0 -0 -0 -0 -0 -0 -0 -0 -0 -0 -0 -0 -0 -0 -0 -0 -0 -0 -0 -0 -0 -0 -0 -0 -0 -0 -0 -0 -0 -0 -0 -0 -0 -0 -0 -0 -0 -0
-0 -0 -0 -0 -0 -0 -0 -0 -0 -0 -0 -0 -0 -0 -0 -0 -0 -0 -0 -0 -0 -0 -0 -0 -0 -0 -0 -0 -0 -0 -0 -0 -0 -0 -0 -0 -0 -0 -0 -0 -0 -0 -0 -0 -0 -0 -0 -0 -0
-0 -0 -0 -0 -2 -0 -0 -0 -0 -0 -0 -0 -0 -0 -0 -0 -0 -0 -0 -0 -0 -0 -0 -0 -0 -0 -0 -0 -0 -0 -0 -0 -0 -0 -0 -0 -0 -0 -0 -0 -0 -0 -0 -0 -0 -0 -0 -0 -0
-0 -0 -0 -0 -0 -0 -0 -0 -0 -0 -0 -0 -0 -0 -0 -0 -0 -0 -0 -0 -0 -0 -0 -0 -0 -0 -0 -0 -0 -0 -0 -0 -0 -0 -0 -0 -0 -0 -0 -0 -0 -0 -0 -0 -0 -0 -0 -0 -0
-0 -0 -0 -0 -0 -0 -0 -0 -0 -0 -0 -0 -0 -0 -0 -0 -0 -0 -0 -0 -0 -0 -0 -0 -0 -0 -0 -0 -0 -0 -0 -0 -0 -0 -0 -0 -0 -0 -0 -0 -0 -0 -0 -0 -0 -0 -0 -0 -0
-0 -0 -0 -0 -0 -0 -0 -0 -0 -0 -0 -0 -0 -0 -0 -0 -0 -0 -0 -0 -0 -0 -0 -0 -0 -0 -0 -0 -0 -0 -0 -0 -0 -0 -0 -0 -0 -0 -0 -0 -0 -0 -0 -0 -0 -0 -0 -0 -0
-0 -0 -0 -0 -0 -0 -0 -0 -0 -0 -0 -0 -0 -0 -0 -0 -0 -0 -0 -0 -0 -0 -0 -0 -0 -0 -0 -0 -0 -0 -0 -0 -0 -0 -0 -0 -0 -0 -0 -0 -0 -0 -0 -0 -0 -0 -0 -0 -0
Wind_Speed
20 19 20 17 16 17 19 16 10 12 12 12 10 7 5 10 12 8 8 9 15 16 18 17 19 18 18 20 22 22 22 22 22 23 25 25 26 27 28 28 27 27 27 28 29 29 30 31 31
17 17 17 17 18 18 15 12 14 8 8 6 9 8 10 10 9 7 8 8 13 15 18 18 17 18 19 20 22 23 23 22 22 23 25 26 27 27 28 28 27 27 27 28 29 30 31 31 32
16 14 17 16 15 16 16 13 8 8 9 11 11 9 10 10 11 11 8 11 10 13 14 15 16 17 19 20 22 24 24 24 24 24 25 26 27 27 27 27 27 27 28 28 29 30 31 32 32
16 13 14 18 15 14 11 11 8 9 9 11 6 10 10 13 12 8 7 8 10 11 13 15 15 16 18 21 22 23 24 25 26 26 26 26 27 27 27 27 27 28 28 29 29 30 31 32 33
15 14 15 18 19 16 13 13 16 12 9 10 11 10 11 12 8 6 7 8 10 10 12 13 15 16 18 20 22 23 24 25 26 27 27 28 28 28 28 28 28 28 28 29 30 31 32 33 33
16 15 15 14 24 19 13 16 18 14 8 9 7 10 12 12 8 6 7 9 10 9 11 13 14 16 18 20 21 22 24 24 26 27 28 28 29 29 28 28 28 28 28 29 30 31 32 32 33
19 19 17 14 14 16 17 19 16 16 11 15 17 13 11 8 8 8 7 9 10 10 11 12 14 16 17 19 20 21 23 24 26 27 28 27 27 27 29 28 28 28 28 29 30 31 32 32 31
18 16 17 17 14 15 17 16 16 14 12 12 16 13 10 8 8 6 8 9 9 10 11 13 14 15 17 18 19 21 22 24 25 26 28 28 27 28 28 29 28 27 27 28 29 31 32 32 30
17 19 20 20 18 14 16 17 14 13 13 14 15 11 13 5 7 6 8 9 10 11 13 14 14 15 16 17 18 20 22 23 26 27 28 27 26 27 25 26 27 27 29 27 27 31 32 32 31
20 23 18 14 16 16 14 13 15 15 11 11 12 12 10 9 9 8 9 10 11 12 14 14 15 15 16 17 18 20 22 23 25 27 27 27 27 27 25 24 25 27 29 30 30 30 31 30 30
19 22 12 13 15 16 13 15 16 11 17 16 15 14 11 9 9 9 11 12 13 13 14 14 15 16 16 17 18 20 22 23 25 27 27 26 26 28 28 28 28 28 28 28 29 30 30 30 28
19 16 14 14 13 15 16 14 16 15 15 14 12 13 11 12 12 12 12 14 15 15 14 14 15 16 17 17 19 20 21 23 24 26 27 27 27 28 28 28 27 27 28 28 29 30 29 28 28
18 16 11 13 11 12 13 14 15 13 9 11 10 11 12 12 14 14 14 15 15 13 15 15 15 16 17 18 19 20 21 22 24 25 27 27 27 27 27 28 27 27 28 28 29 29 29 28 27
17 15 15 15 14 13 14 14 16 13 9 9 12 13 13 15 17 15 16 15 15 15 15 17 15 16 17 18 19 20 21 21 22 24 25 26 26 27 27 28 28 28 28 28 28 28 28 28 25
14 18 17 17 17 18 15 21 19 9 9 8 9 13 14 18 17 18 18 17 17 17 17 16 17 16 16 18 19 19 20 21 22 24 25 26 26 26 26 27 28 28 28 28 28 28 28 27 26
17 19 23 20 18 19 19 24 16 12 13 13 9 11 14 16 17 17 17 17 16 16 16 17 18 16 17 17 18 19 20 20 22 23 24 25 26 26 25 27 28 28 28 28 27 27 28 27 26
20 25 25 23 20 21 21 25 17 18 18 15 14 13 12 14 13 14 16 16 15 15 16 16 17 16 16 17 17 18 19 20 21 23 24 25 26 26 25 26 28 28 28 29 28 27 28 27 26
23 24 24 26 22 24 26 29 21 20 21 20 15 13 15 16 16 13 12 14 15 15 15 16 17 16 16 16 16 17 19 20 21 22 23 24 25 26 25 26 27 28 28 29 28 28 27 29 25
20 19 23 25 22 26 32 34 28 22 22 23 21 17 15 15 15 14 15 14 13 14 15 16 16 17 15 16 16 17 18 19 19 21 22 23 24 25 25 25 26 27 28 28 28 27 28 30 27
20 20 23 22 21 27 34 38 35 29 25 23 22 21 19 18 17 15 15 15 15 14 15 16 17 18 18 17 16 16 16 17 17 19 21 23 24 25 24 25 25 26 25 27 28 28 26 27 30
21 23 23 24 20 25 32 42 38 34 26 25 24 22 19 18 18 17 16 16 16 16 15 16 17 16 17 16 15 14 14 15 17 19 20 22 23 24 24 24 24 25 25 25 26 27 27 26 27
24 18 22 25 24 29 21 38 31 27 29 26 27 23 19 19 18 17 16 17 16 15 15 16 17 17 18 18 15 14 16 15 16 16 17 20 22 23 23 23 23 24 24 25 25 26 26 26 26
21 18 20 22 26 30 27 33 30 24 26 25 26 27 26 22 21 19 17 16 16 16 16 15 16 17 16 17 16 15 14 14 13 15 17 18 20 22 22 22 23 23 23 24 25 26 26 26 26
18 20 21 23 26 34 31 28 33 27 27 26 22 22 22 21 18 17 16 16 15 16 15 15 14 15 15 15 15 14 12 12 13 14 15 17 19 20 21 21 22 22 22 24 24 25 26 26 26
19 21 29 32 32 35 26 27 34 34 28 26 22 17 16 16 16 15 15 15 16 15 15 13 13 13 13 13 12 12 12 12 13 14 15 15 16 18 19 20 21 21 22 23 23 24 25 26 26
25 23 28 36 35 34 26 33 28 23 24 23 21 20 11 11 13 15 15 15 13 14 15 14 12 13 12 11 11 11 12 12 13 13 13 13 14 15 17 18 20 21 21 22 23 23 24 25 26
25 33 28 35 35 38 33 33 35 27 27 24 21 14 9 10 10 11 13 14 13 13 13 14 13 11 10 9 10 10 10 10 10 11 11 11 13 14 16 17 19 20 20 21 22 23 24 24 25
31 24 31 31 39 42 36 36 34 28 28 22 19 13 10 9 10 10 10 11 13 13 12 11 11 10 9 8 9 10 11 10 9 9 10 11 12 13 15 16 18 19 20 20 21 22 23 24 24
32 34 31 28 33 38 41 35 23 22 22 21 17 13 10 10 9 10 10 10 11 12 12 12 11 12 11 11 9 9 8 7 7 8 9 9 11 12 14 15 17 18 19 20 21 22 22 23 23
34 37 35 38 37 37 42 49 30 33 25 18 15 13 13 11 11 11 11 11 11 12 12 12 11 10 10 9 7 7 7 6 7 6 7 8 10 12 14 15 16 17 18 19 20 21 21 21 22
Wind_Direction
264 261 258 257 257 259 250 254 270 263 272 276 288 294 350 309 293 336 304 299 57 61 72 57 69 49 36 29 25 15 2 356 351 350 352 350 349 349 349 345 343 343 342 345 353 355 359 3 5
253 259 255 253 252 251 253 261 253 279 288 302 291 297 300 306 335 6 313 2 49 58 82 71 52 50 40 30 22 19 9 360 352 346 349 352 350 349 347 347 346 346 346 349 353 356 359 1 3
256 281 252 252 255 258 253 249 263 280 279 281 276 299 291 298 309 299 16 46 23 40 46 43 47 42 37 32 27 25 23 14 2 350 348 348 347 348 345 343 345 350 350 352 354 1 1 2 1
253 279 267 247 246 267 270 266 273 264 281 286 323 289 300 301 289 314 355 0 7 15 34 43 36 32 28 30 25 25 24 19 12 2 353 349 347 348 348 346 349 354 355 360 1 0 360 1 0
261 266 261 248 240 259 269 273 258 259 276 281 291 293 290 295 307 4 13 13 23 10 18 28 26 27 22 20 23 27 24 17 15 8 0 356 354 353 357 1 3 2 3 5 4 3 1 3 6
259 258 264 248 239 253 274 269 256 266 279 292 313 298 291 285 305 353 12 23 13 9 9 15 13 17 14 16 17 19 18 11 4 7 11 19 12 10 7 8 8 9 9 9 5 4 7 11 11
257 253 257 250 248 256 264 258 267 268 271 271 272 289 292 294 304 329 20 16 10 4 3 5 9 15 10 13 18 19 15 13 12 5 7 20 26 24 15 16 15 13 14 13 11 10 9 10 17
261 267 260 256 255 265 263 259 270 281 284 289 284 289 285 285 319 352 358 5 358 354 352 353 351 3 10 13 20 23 17 15 12 12 354 5 21 11 20 17 21 20 20 20 18 13 10 8 20
275 262 257 254 255 271 266 262 279 300 282 285 288 292 283 309 328 319 331 339 339 337 335 339 353 356 7 19 23 22 18 16 4 358 360 10 18 18 22 23 20 20 12 16 20 9 9 9 14
264 260 266 279 267 267 277 272 269 275 285 287 285 303 305 295 297 302 307 313 321 327 328 335 345 347 343 353 359 10 4 7 7 3 9 10 11 10 17 21 17 10 5 0 7 9 11 14 17
269 263 283 283 276 273 282 277 271 275 277 282 277 281 293 294 307 305 306 310 314 325 325 334 338 339 344 343 348 349 355 359 6 1 3 11 12 7 4 2 5 8 8 8 8 10 13 14 16
265 282 285 279 287 277 278 281 273 288 283 294 291 283 293 290 294 300 303 305 309 314 325 335 339 338 333 342 343 348 350 353 3 4 358 4 3 3 6 5 4 7 8 8 8 8 12 15 18
267 273 291 286 291 287 291 284 278 294 308 297 298 294 291 298 293 301 304 304 308 316 318 326 333 334 336 339 347 347 348 353 1 6 2 5 10 9 9 7 7 6 7 8 7 9 11 13 20
274 274 280 281 281 285 282 287 285 296 304 301 288 290 296 289 290 301 305 309 307 310 316 315 329 333 336 341 343 346 348 353 1 3 6 10 13 13 9 5 4 6 6 7 11 11 13 13 23
281 269 277 281 278 277 287 279 282 290 296 294 294 291 294 285 291 295 301 307 304 304 308 314 319 330 334 338 342 346 348 352 355 360 2 7 11 13 13 6 4 5 8 8 10 10 12 15 18
273 274 267 275 277 281 277 278 279 286 281 286 293 296 292 293 293 296 302 308 312 307 308 311 313 322 328 334 339 343 346 352 353 355 360 1 3 10 16 8 3 5 8 9 12 14 12 12 15
275 267 267 275 275 279 275 278 279 279 278 281 288 288 292 293 300 304 302 308 314 314 310 311 314 319 324 331 339 343 346 349 350 351 353 356 359 3 9 10 3 5 7 7 8 12 14 11 11
274 272 271 270 277 271 273 272 281 279 278 277 278 279 285 285 292 305 310 309 310 315 314 312 313 318 322 327 334 342 345 347 349 349 352 355 357 360 4 6 4 4 5 5 6 8 12 11 9
293 282 277 278 280 277 272 272 274 275 278 276 274 275 277 282 292 298 299 303 310 310 313 315 315 316 323 323 327 332 336 342 347 350 351 354 357 359 2 5 8 8 8 7 9 11 11 10 7
289 284 283 289 284 280 277 273 275 274 274 272 272 272 274 278 284 290 294 297 301 307 311 312 315 316 318 321 329 328 334 341 348 351 352 355 358 359 2 6 9 9 10 10 11 12 17 19 16
287 284 286 286 294 290 285 276 273 273 275 272 273 270 270 273 278 281 286 290 294 300 306 308 312 318 318 322 329 335 340 343 343 346 350 354 358 1 4 7 11 12 13 12 14 14 15 15 16
282 290 291 287 289 286 294 281 284 281 273 267 268 268 261 268 273 276 280 285 292 299 306 306 309 314 316 316 318 321 324 328 336 345 353 356 357 360 5 8 11 14 16 13 13 15 14 15 11
285 297 296 291 288 286 288 287 290 294 285 276 273 269 268 266 264 268 275 282 288 293 299 306 308 312 316 316 316 317 324 331 337 342 348 355 0 2 6 12 12 13 15 14 15 11 12 16 16
289 289 293 292 289 281 284 281 287 294 294 291 284 275 270 265 261 265 272 278 287 291 297 304 310 312 316 317 319 320 324 330 333 339 347 352 357 2 7 11 13 11 13 13 15 14 13 14 15
276 279 279 279 278 278 292 282 281 292 298 301 298 285 271 265 260 260 266 274 280 285 291 300 308 311 314 318 322 323 326 333 336 340 345 353 357 359 4 8 9 10 10 11 14 15 14 13 13
265 268 274 274 276 281 293 281 292 306 310 309 304 304 278 269 263 262 265 272 274 281 287 296 302 306 313 317 318 323 325 331 338 345 351 358 9 11 11 10 9 9 11 10 12 15 17 14 13
269 262 271 281 283 280 281 286 292 299 304 303 304 303 285 273 270 266 267 266 269 279 286 290 296 300 306 312 319 323 331 336 345 353 0 12 9 8 8 9 9 11 12 14 15 15 15 16 14
267 281 265 269 273 274 279 282 284 296 301 306 307 301 298 292 280 277 268 269 275 276 281 288 291 295 303 312 316 319 325 334 348 1 3 0 8 12 11 9 10 11 14 15 17 15 15 15 15
262 264 269 269 270 276 277 280 294 301 312 308 307 308 306 295 287 280 279 276 274 275 277 281 279 286 292 296 306 311 325 338 347 350 354 7 6 9 8 10 12 10 11 13 15 15 14 14 15
265 263 260 264 271 271 274 273 283 291 297 313 320 309 313 307 303 292 282 273 267 269 272 274 276 278 285 294 296 298 312 327 336 348 357 2 2 6 9 10 9 11 12 13 13 12 12 14 14